DAL1045 KLAX-KSEA

Flight info

Callsign DAL1045
Flight time 2h 15m
Altitude 34000
Route LADYJ4 CSTRO SHIMR LKV HAWKZ8
Aircraft B739/M-SDE2E3FGHIRWXY/LB1

Departure

Time 2026-05-06 08:03
Airport Los Angeles International Airport (KLAX)

Arrival

Time 2026-05-06 10:18
Airport Seattle–Tacoma International Airport (KSEA)
Time Latitude Longitude Altitude Speed Heading
2026-05-06 07:40 33.94705 -118.40832 125 ft 0 kts 140°
2026-05-06 07:54 33.94712 -118.40839 120 ft 3 kts 140°
2026-05-06 07:54 33.94729 -118.40857 119 ft 4 kts 129°
2026-05-06 07:54 33.94742 -118.40884 123 ft 4 kts 102°
2026-05-06 07:54 33.94742 -118.40914 122 ft 3 kts 69°
2026-05-06 07:55 33.94739 -118.40921 125 ft 0 kts 68°
2026-05-06 07:58 33.94740 -118.40919 125 ft 1 kts 67°
2026-05-06 07:58 33.94767 -118.40893 124 ft 8 kts 21°
2026-05-06 07:58 33.94826 -118.40868 119 ft 9 kts 42°
2026-05-06 07:58 33.94845 -118.40793 125 ft 11 kts 83°
2026-05-06 07:59 33.94855 -118.40691 125 ft 14 kts 83°
2026-05-06 07:59 33.94868 -118.40567 125 ft 15 kts 83°
2026-05-06 07:59 33.94881 -118.40442 123 ft 15 kts 83°
2026-05-06 07:59 33.94893 -118.40322 125 ft 14 kts 82°
2026-05-06 08:00 33.94906 -118.40208 123 ft 13 kts 83°
2026-05-06 08:00 33.94916 -118.40098 122 ft 13 kts 84°
2026-05-06 08:00 33.94927 -118.39992 125 ft 13 kts 83°
2026-05-06 08:00 33.94946 -118.39935 125 ft 0 kts 50°
2026-05-06 08:01 33.94949 -118.39931 123 ft 2 kts 47°
2026-05-06 08:01 33.94979 -118.39915 122 ft 8 kts
2026-05-06 08:02 33.95036 -118.39946 123 ft 11 kts 286°
2026-05-06 08:02 33.95034 -118.40033 122 ft 10 kts 263°
2026-05-06 08:02 33.95021 -118.40164 123 ft 38 kts 263°
2026-05-06 08:02 33.94950 -118.40842 124 ft 122 kts 263°
2026-05-06 08:03 33.94813 -118.42136 231 ft 179 kts 262°
2026-05-06 08:03 33.94644 -118.43719 845 ft 204 kts 262°
2026-05-06 08:03 33.94470 -118.45433 1882 ft 206 kts 263°
2026-05-06 08:03 33.94295 -118.47210 2369 ft 226 kts 263°
2026-05-06 08:04 33.94195 -118.49180 2795 ft 240 kts 268°
2026-05-06 08:04 33.94163 -118.51251 3279 ft 258 kts 268°
2026-05-06 08:04 33.94052 -118.53411 4098 ft 259 kts 265°
2026-05-06 08:04 33.93870 -118.55617 4821 ft 268 kts 264°
2026-05-06 08:05 33.93691 -118.57807 5732 ft 266 kts 265°
2026-05-06 08:05 33.93514 -118.60043 6532 ft 271 kts 265°
2026-05-06 08:05 33.93595 -118.62334 7128 ft 278 kts 287°
2026-05-06 08:05 33.94543 -118.64334 7781 ft 280 kts 317°
2026-05-06 08:06 33.96130 -118.65677 8015 ft 279 kts 333°
2026-05-06 08:06 33.97862 -118.66793 8084 ft 284 kts 333°
2026-05-06 08:06 33.99663 -118.67716 8025 ft 280 kts 352°
2026-05-06 08:06 34.01559 -118.67694 8184 ft 269 kts
2026-05-06 08:07 34.03446 -118.67483 8104 ft 275 kts
2026-05-06 08:07 34.05361 -118.67328 8138 ft 275 kts
2026-05-06 08:07 34.07240 -118.67201 8222 ft 273 kts
2026-05-06 08:07 34.09134 -118.66956 8435 ft 273 kts 12°
2026-05-06 08:08 34.10990 -118.66510 9250 ft 272 kts 14°
2026-05-06 08:08 34.12841 -118.66040 10102 ft 271 kts 15°
2026-05-06 08:08 34.14712 -118.65563 10689 ft 280 kts 15°
2026-05-06 08:08 34.16683 -118.65068 10986 ft 299 kts 14°
2026-05-06 08:09 34.18785 -118.64551 11330 ft 316 kts 13°
2026-05-06 08:09 34.20974 -118.64041 11883 ft 323 kts 12°
2026-05-06 08:09 34.23191 -118.63527 12588 ft 327 kts 12°
2026-05-06 08:09 34.25514 -118.63376 12792 ft 348 kts 352°
2026-05-06 08:10 34.27902 -118.64017 13342 ft 355 kts 349°
2026-05-06 08:10 34.30378 -118.64650 13509 ft 372 kts 351°
2026-05-06 08:10 34.32929 -118.65227 13911 ft 380 kts 351°
2026-05-06 08:10 34.35545 -118.65803 14463 ft 382 kts 351°
2026-05-06 08:11 34.38174 -118.66391 15041 ft 384 kts 351°
2026-05-06 08:11 34.40809 -118.66988 15605 ft 387 kts 351°
2026-05-06 08:11 34.43467 -118.67589 16148 ft 389 kts 352°
2026-05-06 08:11 34.46149 -118.68137 16675 ft 391 kts 353°
2026-05-06 08:12 34.48816 -118.68649 17191 ft 394 kts 353°
2026-05-06 08:12 34.51529 -118.69163 17699 ft 396 kts 353°
2026-05-06 08:12 34.54269 -118.69685 18195 ft 399 kts 353°
2026-05-06 08:12 34.57016 -118.70215 18653 ft 401 kts 353°
2026-05-06 08:13 34.59788 -118.70755 19098 ft 403 kts 353°
2026-05-06 08:13 34.62567 -118.71299 19556 ft 405 kts 353°
2026-05-06 08:13 34.65363 -118.71847 20019 ft 407 kts 354°
2026-05-06 08:13 34.68170 -118.72397 20484 ft 409 kts 354°
2026-05-06 08:14 34.70985 -118.72971 20923 ft 412 kts 351°
2026-05-06 08:14 34.73712 -118.74169 21310 ft 422 kts 335°
2026-05-06 08:14 34.76245 -118.75911 21752 ft 424 kts 334°
2026-05-06 08:14 34.78808 -118.77715 22142 ft 427 kts 334°
2026-05-06 08:15 34.81389 -118.79530 22539 ft 429 kts 334°
2026-05-06 08:15 34.83991 -118.81350 22927 ft 431 kts 334°
2026-05-06 08:15 34.86601 -118.83163 23316 ft 433 kts 334°
2026-05-06 08:15 34.89234 -118.84983 23703 ft 435 kts 335°
2026-05-06 08:16 34.91876 -118.86804 24033 ft 437 kts 335°
2026-05-06 08:16 34.94531 -118.88632 24347 ft 439 kts 335°
2026-05-06 08:16 34.97201 -118.90471 24666 ft 441 kts 335°
2026-05-06 08:16 34.99877 -118.92315 24979 ft 443 kts 335°
2026-05-06 08:17 35.02569 -118.94171 25281 ft 445 kts 335°
2026-05-06 08:17 35.05267 -118.96033 25587 ft 447 kts 335°
2026-05-06 08:17 35.07937 -118.97878 25890 ft 448 kts 335°
2026-05-06 08:17 35.10659 -118.99760 26191 ft 450 kts 335°
2026-05-06 08:18 35.13385 -119.01646 26485 ft 452 kts 335°
2026-05-06 08:18 35.16127 -119.03546 26761 ft 454 kts 335°
2026-05-06 08:18 35.18878 -119.05452 27037 ft 455 kts 335°
2026-05-06 08:18 35.21630 -119.07362 27423 ft 454 kts 335°
2026-05-06 08:19 35.24369 -119.09266 27881 ft 451 kts 335°
2026-05-06 08:19 35.27090 -119.11158 28336 ft 450 kts 335°
2026-05-06 08:19 35.29801 -119.13043 28744 ft 449 kts 335°
2026-05-06 08:19 35.32529 -119.14942 29160 ft 448 kts 335°
2026-05-06 08:20 35.35229 -119.16822 29596 ft 447 kts 335°
2026-05-06 08:20 35.37920 -119.18697 30055 ft 445 kts 336°
2026-05-06 08:20 35.40600 -119.20566 30433 ft 444 kts 336°
2026-05-06 08:20 35.43296 -119.22447 30773 ft 443 kts 336°
2026-05-06 08:21 35.46065 -119.24021 31068 ft 434 kts 349°
2026-05-06 08:21 35.48993 -119.24879 31427 ft 429 kts 352°
2026-05-06 08:21 35.51879 -119.25689 31777 ft 428 kts 352°
2026-05-06 08:21 35.54798 -119.26523 32092 ft 428 kts 352°
2026-05-06 08:22 35.57666 -119.27356 32403 ft 427 kts 351°
2026-05-06 08:22 35.59590 -119.27921 32629 ft 426 kts 351°
2026-05-06 08:22 35.62467 -119.28774 32971 ft 425 kts 351°
2026-05-06 08:22 35.66314 -119.29922 33382 ft 424 kts 351°
2026-05-06 08:23 35.68196 -119.30486 33565 ft 424 kts 351°
2026-05-06 08:23 35.72020 -119.31633 33965 ft 423 kts 351°
2026-05-06 08:23 35.73946 -119.32212 34146 ft 423 kts 351°
2026-05-06 08:23 35.77745 -119.33352 34136 ft 424 kts 351°
2026-05-06 08:24 35.82511 -119.34786 34129 ft 421 kts 351°
2026-05-06 08:24 35.88189 -119.36497 34131 ft 418 kts 351°
2026-05-06 08:25 35.93851 -119.38204 34127 ft 417 kts 351°
2026-05-06 08:25 35.99467 -119.39899 34128 ft 416 kts 351°
2026-05-06 08:26 36.05090 -119.41598 34129 ft 415 kts 351°
2026-05-06 08:26 36.10679 -119.43290 34127 ft 416 kts 351°
2026-05-06 08:27 36.16288 -119.44990 34134 ft 416 kts 351°
2026-05-06 08:27 36.21957 -119.46711 34135 ft 417 kts 351°
2026-05-06 08:28 36.27570 -119.48419 34137 ft 418 kts 351°
2026-05-06 08:28 36.33223 -119.50140 34135 ft 419 kts 351°
2026-05-06 08:29 36.38933 -119.51882 34136 ft 420 kts 351°
2026-05-06 08:29 36.44608 -119.53616 34134 ft 421 kts 351°
2026-05-06 08:30 36.50312 -119.55361 34135 ft 422 kts 351°
2026-05-06 08:30 36.56010 -119.57107 34134 ft 423 kts 351°
2026-05-06 08:31 36.61697 -119.58853 34128 ft 424 kts 351°
2026-05-06 08:31 36.67424 -119.60613 34135 ft 424 kts 351°
2026-05-06 08:32 36.73154 -119.62377 34137 ft 424 kts 351°
2026-05-06 08:32 36.78885 -119.64144 34137 ft 424 kts 350°
2026-05-06 08:33 36.84613 -119.65913 34134 ft 423 kts 350°
2026-05-06 08:33 36.90308 -119.67675 34131 ft 423 kts 350°
2026-05-06 08:34 36.98879 -119.70331 34128 ft 422 kts 350°
2026-05-06 08:35 37.04547 -119.72090 34129 ft 422 kts 350°
2026-05-06 08:35 37.10253 -119.73864 34119 ft 422 kts 350°
2026-05-06 08:36 37.15961 -119.75642 34128 ft 421 kts 350°
2026-05-06 08:36 37.21635 -119.77412 34121 ft 421 kts 350°
2026-05-06 08:37 37.27342 -119.79194 34117 ft 422 kts 350°
2026-05-06 08:37 37.33015 -119.80969 34120 ft 422 kts 350°
2026-05-06 08:38 37.38743 -119.82764 34116 ft 423 kts 350°
2026-05-06 08:38 37.44448 -119.84555 34133 ft 423 kts 350°
2026-05-06 08:39 37.50154 -119.86348 34130 ft 424 kts 350°
2026-05-06 08:39 37.55850 -119.88142 34134 ft 424 kts 349°
2026-05-06 08:40 37.61585 -119.89950 34135 ft 425 kts 349°
2026-05-06 08:40 37.67313 -119.91759 34128 ft 425 kts 349°
2026-05-06 08:41 37.73042 -119.93573 34140 ft 424 kts 349°
2026-05-06 08:41 37.78777 -119.95390 34142 ft 424 kts 349°
2026-05-06 08:42 37.84485 -119.97201 34131 ft 424 kts 349°
2026-05-06 08:42 37.90248 -119.99034 34128 ft 424 kts 349°
2026-05-06 08:43 37.95946 -120.00848 34116 ft 423 kts 349°
2026-05-06 08:43 38.01655 -120.02669 34135 ft 422 kts 349°
2026-05-06 08:44 38.07367 -120.04494 34132 ft 422 kts 349°
2026-05-06 08:44 38.13044 -120.06310 34126 ft 422 kts 349°
2026-05-06 08:45 38.18758 -120.08141 34123 ft 423 kts 349°
2026-05-06 08:45 38.24428 -120.09964 34129 ft 422 kts 349°
2026-05-06 08:46 38.30152 -120.11815 34121 ft 423 kts 349°
2026-05-06 08:46 38.35840 -120.13652 34117 ft 423 kts 349°
2026-05-06 08:47 38.41545 -120.15498 34106 ft 424 kts 349°
2026-05-06 08:47 38.47288 -120.17352 34112 ft 424 kts 349°
2026-05-06 08:48 38.53022 -120.19206 34110 ft 426 kts 349°
2026-05-06 08:48 38.58731 -120.21048 34119 ft 426 kts 349°
2026-05-06 08:49 38.64461 -120.22902 34132 ft 426 kts 349°
2026-05-06 08:49 38.70219 -120.24769 34134 ft 426 kts 349°
2026-05-06 08:50 38.75972 -120.26631 34132 ft 426 kts 349°
2026-05-06 08:50 38.81684 -120.28485 34149 ft 424 kts 349°
2026-05-06 08:51 38.87403 -120.30344 34135 ft 424 kts 349°
2026-05-06 08:51 38.93112 -120.32195 34130 ft 423 kts 349°
2026-05-06 08:52 38.98840 -120.34049 34120 ft 423 kts 349°
2026-05-06 08:52 39.04524 -120.35880 34106 ft 423 kts 349°
2026-05-06 08:53 39.10268 -120.37724 34112 ft 424 kts 349°
2026-05-06 08:53 39.15970 -120.39552 34124 ft 425 kts 349°
2026-05-06 08:54 39.21746 -120.41400 34127 ft 426 kts 349°
2026-05-06 08:54 39.27498 -120.43239 34133 ft 428 kts 349°
2026-05-06 08:55 39.33251 -120.45078 34122 ft 429 kts 349°
2026-05-06 08:55 39.39085 -120.46942 34128 ft 430 kts 349°
2026-05-06 08:56 39.44866 -120.48790 34116 ft 431 kts 349°
2026-05-06 08:56 39.50710 -120.50658 34105 ft 431 kts 349°
2026-05-06 08:57 39.56524 -120.52518 34083 ft 432 kts 349°
2026-05-06 08:57 39.62359 -120.54386 34086 ft 432 kts 349°
2026-05-06 08:58 39.68202 -120.56258 34084 ft 432 kts 349°
2026-05-06 08:58 39.74046 -120.58128 34076 ft 433 kts 349°
2026-05-06 08:59 39.79882 -120.59731 34086 ft 430 kts 352°
2026-05-06 08:59 39.85764 -120.61152 34090 ft 430 kts 352°
2026-05-06 09:00 39.91633 -120.62685 34082 ft 430 kts 351°
2026-05-06 09:00 39.97481 -120.64305 34076 ft 429 kts 351°
2026-05-06 09:01 40.03312 -120.65957 34088 ft 429 kts 351°
2026-05-06 09:01 40.09151 -120.67619 34075 ft 429 kts 351°
2026-05-06 09:02 40.14942 -120.69270 34088 ft 428 kts 350°
2026-05-06 09:02 40.20788 -120.70937 34099 ft 428 kts 350°
2026-05-06 09:03 40.26590 -120.72593 34098 ft 428 kts 350°
2026-05-06 09:03 40.32409 -120.74258 34110 ft 428 kts 350°
2026-05-06 09:04 40.38237 -120.75928 34102 ft 429 kts 350°
2026-05-06 09:04 40.44071 -120.77602 34097 ft 429 kts 350°
2026-05-06 09:05 40.49923 -120.79286 34097 ft 428 kts 350°
2026-05-06 09:05 40.55713 -120.80954 34083 ft 429 kts 350°
2026-05-06 09:06 40.61563 -120.82642 34075 ft 429 kts 350°
2026-05-06 09:06 40.67370 -120.84321 34069 ft 429 kts 350°
2026-05-06 09:07 40.73195 -120.86008 34066 ft 429 kts 350°
2026-05-06 09:07 40.79006 -120.87694 34074 ft 428 kts 350°
2026-05-06 09:08 40.84838 -120.89389 34086 ft 429 kts 350°
2026-05-06 09:08 40.90676 -120.91089 34073 ft 429 kts 349°
2026-05-06 09:09 40.96486 -120.92784 34079 ft 429 kts 349°
2026-05-06 09:09 41.02324 -120.94490 34088 ft 429 kts 349°
2026-05-06 09:10 41.08154 -120.96197 34069 ft 430 kts 349°
2026-05-06 09:10 41.13978 -120.97906 34068 ft 430 kts 349°
2026-05-06 09:11 41.19828 -120.99625 34073 ft 430 kts 349°
2026-05-06 09:11 41.25692 -121.01351 34058 ft 430 kts 349°
2026-05-06 09:12 41.31548 -121.03078 34046 ft 431 kts 349°
2026-05-06 09:12 41.36401 -121.04512 34054 ft 432 kts 349°
2026-05-06 09:13 41.42261 -121.06246 34058 ft 432 kts 349°
2026-05-06 09:13 41.48143 -121.07990 34050 ft 432 kts 349°
2026-05-06 09:14 41.54006 -121.09732 34052 ft 432 kts 349°
2026-05-06 09:14 41.59916 -121.11491 34042 ft 433 kts 349°
2026-05-06 09:15 41.65760 -121.13233 34043 ft 433 kts 349°
2026-05-06 09:15 41.71635 -121.14988 34034 ft 433 kts 349°
2026-05-06 09:16 41.77556 -121.16760 34041 ft 433 kts 349°
2026-05-06 09:16 41.83420 -121.18518 34032 ft 433 kts 349°
2026-05-06 09:17 41.89320 -121.20290 34028 ft 433 kts 349°
2026-05-06 09:17 41.95191 -121.22057 34034 ft 433 kts 348°
2026-05-06 09:18 42.01053 -121.23825 34040 ft 433 kts 348°
2026-05-06 09:18 42.06926 -121.25599 34031 ft 433 kts 348°
2026-05-06 09:19 42.12786 -121.27373 34049 ft 432 kts 348°
2026-05-06 09:19 42.18683 -121.29161 34058 ft 432 kts 348°
2026-05-06 09:20 42.24532 -121.30938 34051 ft 432 kts 348°
2026-05-06 09:20 42.30363 -121.32713 34045 ft 432 kts 348°
2026-05-06 09:21 42.36235 -121.34504 34045 ft 432 kts 348°
2026-05-06 09:21 42.42100 -121.36296 34036 ft 432 kts 348°
2026-05-06 09:22 42.47960 -121.38090 34037 ft 431 kts 348°
2026-05-06 09:22 42.53791 -121.39879 34038 ft 431 kts 348°
2026-05-06 09:23 42.59638 -121.41676 34042 ft 431 kts 348°
2026-05-06 09:23 42.65522 -121.43488 34037 ft 431 kts 348°
2026-05-06 09:24 42.71378 -121.45294 34033 ft 431 kts 348°
2026-05-06 09:24 42.77205 -121.47096 34036 ft 431 kts 348°
2026-05-06 09:25 42.83054 -121.48907 34038 ft 431 kts 348°
2026-05-06 09:25 42.88918 -121.50727 34038 ft 431 kts 348°
2026-05-06 09:26 42.94755 -121.52542 34033 ft 431 kts 348°
2026-05-06 09:26 43.00565 -121.54352 34035 ft 431 kts 348°
2026-05-06 09:27 43.06422 -121.56180 34040 ft 430 kts 348°
2026-05-06 09:27 43.12233 -121.57997 34036 ft 430 kts 348°
2026-05-06 09:28 43.18100 -121.59836 34035 ft 430 kts 348°
2026-05-06 09:28 43.23906 -121.61659 34040 ft 430 kts 348°
2026-05-06 09:29 43.29731 -121.63491 34040 ft 430 kts 348°
2026-05-06 09:29 43.35586 -121.65337 34044 ft 430 kts 348°
2026-05-06 09:30 43.41397 -121.67172 34041 ft 430 kts 348°
2026-05-06 09:30 43.47231 -121.69018 34054 ft 430 kts 347°
2026-05-06 09:31 43.53058 -121.70866 34049 ft 431 kts 347°
2026-05-06 09:31 43.58911 -121.72726 34063 ft 431 kts 347°
2026-05-06 09:32 43.64769 -121.74590 34055 ft 431 kts 347°
2026-05-06 09:32 43.70579 -121.76444 34054 ft 431 kts 347°
2026-05-06 09:33 43.76441 -121.78317 34056 ft 431 kts 347°
2026-05-06 09:33 43.82294 -121.80192 34058 ft 431 kts 347°
2026-05-06 09:34 43.88130 -121.82065 34058 ft 431 kts 347°
2026-05-06 09:34 43.93935 -121.83931 34068 ft 431 kts 347°
2026-05-06 09:35 43.99802 -121.85822 34059 ft 431 kts 347°
2026-05-06 09:35 44.05652 -121.87711 34071 ft 431 kts 347°
2026-05-06 09:36 44.11486 -121.89598 34062 ft 431 kts 347°
2026-05-06 09:36 44.17335 -121.91494 34070 ft 432 kts 347°
2026-05-06 09:37 44.23191 -121.93396 34075 ft 432 kts 347°
2026-05-06 09:37 44.29030 -121.95297 34081 ft 432 kts 347°
2026-05-06 09:38 44.34906 -121.97213 34078 ft 433 kts 346°
2026-05-06 09:38 44.40757 -121.99126 34083 ft 433 kts 346°
2026-05-06 09:39 44.46626 -122.01048 34085 ft 433 kts 346°
2026-05-06 09:39 44.52485 -122.02971 34090 ft 433 kts 346°
2026-05-06 09:40 44.58352 -122.04900 34092 ft 433 kts 346°
2026-05-06 09:40 44.67156 -122.07803 34093 ft 434 kts 346°
2026-05-06 09:41 44.73024 -122.09743 34095 ft 434 kts 346°
2026-05-06 09:41 44.78895 -122.11688 34101 ft 434 kts 346°
2026-05-06 09:42 44.84778 -122.13641 34111 ft 434 kts 346°
2026-05-06 09:42 44.90666 -122.15600 34117 ft 434 kts 346°
2026-05-06 09:43 44.96543 -122.17559 34111 ft 434 kts 346°
2026-05-06 09:43 45.02421 -122.19523 34115 ft 434 kts 346°
2026-05-06 09:44 45.08304 -122.21493 34114 ft 434 kts 346°
2026-05-06 09:44 45.14154 -122.23456 34122 ft 434 kts 346°
2026-05-06 09:45 45.20045 -122.25436 34113 ft 435 kts 346°
2026-05-06 09:45 45.25933 -122.27420 34110 ft 435 kts 346°
2026-05-06 09:46 45.31735 -122.29815 34112 ft 433 kts 335°
2026-05-06 09:46 45.37181 -122.33519 34115 ft 433 kts 333°
2026-05-06 09:47 45.42595 -122.37315 34122 ft 434 kts 333°
2026-05-06 09:47 45.47997 -122.41007 34124 ft 434 kts 334°
2026-05-06 09:48 45.53453 -122.44690 34120 ft 434 kts 334°
2026-05-06 09:48 45.58916 -122.48379 34121 ft 434 kts 334°
2026-05-06 09:49 45.64373 -122.52076 34133 ft 434 kts 334°
2026-05-06 09:49 45.69825 -122.55779 34143 ft 434 kts 334°
2026-05-06 09:50 45.75323 -122.59339 34126 ft 435 kts 342°
2026-05-06 09:50 45.81291 -122.60866 34118 ft 436 kts 349°
2026-05-06 09:51 45.87248 -122.62249 34119 ft 437 kts 349°
2026-05-06 09:51 45.93242 -122.63713 34129 ft 437 kts 348°
2026-05-06 09:52 45.99249 -122.65208 34134 ft 437 kts 348°
2026-05-06 09:52 46.05257 -122.66706 33882 ft 442 kts 348°
2026-05-06 09:53 46.08325 -122.67472 33125 ft 448 kts 348°
2026-05-06 09:53 46.11404 -122.68208 32276 ft 448 kts 350°
2026-05-06 09:53 46.14493 -122.68833 31392 ft 449 kts 351°
2026-05-06 09:53 46.17601 -122.69416 30473 ft 451 kts 351°
2026-05-06 09:54 46.20720 -122.69999 29404 ft 454 kts 351°
2026-05-06 09:54 46.23808 -122.70591 28672 ft 449 kts 351°
2026-05-06 09:54 46.26887 -122.71196 27944 ft 445 kts 351°
2026-05-06 09:54 46.29963 -122.71807 27273 ft 439 kts 351°
2026-05-06 09:55 46.32976 -122.72368 26589 ft 435 kts 353°
2026-05-06 09:55 46.35970 -122.72626 25938 ft 432 kts 356°
2026-05-06 09:55 46.38962 -122.72701 25288 ft 429 kts 358°
2026-05-06 09:55 46.41929 -122.72725 24634 ft 426 kts 358°
2026-05-06 09:56 46.44881 -122.72757 23975 ft 424 kts 358°
2026-05-06 09:56 46.47831 -122.72815 23247 ft 422 kts 357°
2026-05-06 09:56 46.50757 -122.72896 22554 ft 418 kts 357°
2026-05-06 09:56 46.53653 -122.72992 21896 ft 414 kts 357°
2026-05-06 09:57 46.56513 -122.73094 21259 ft 410 kts 356°
2026-05-06 09:57 46.59353 -122.73198 20633 ft 406 kts 356°
2026-05-06 09:57 46.62169 -122.73302 20009 ft 403 kts 356°
2026-05-06 09:57 46.64964 -122.73405 19380 ft 401 kts 356°
2026-05-06 09:58 46.67740 -122.73506 18758 ft 398 kts 356°
2026-05-06 09:58 46.70509 -122.73607 18254 ft 392 kts 356°
2026-05-06 09:58 46.73158 -122.73701 18036 ft 379 kts 356°
2026-05-06 09:58 46.75748 -122.73792 17864 ft 365 kts 357°
2026-05-06 09:59 46.78234 -122.73280 17670 ft 358 kts 15°
2026-05-06 09:59 46.80460 -122.71664 17202 ft 359 kts 33°
2026-05-06 09:59 46.82409 -122.69409 16772 ft 357 kts 37°
2026-05-06 09:59 46.84314 -122.67085 16235 ft 357 kts 38°
2026-05-06 10:00 46.86228 -122.64789 15766 ft 354 kts 36°
2026-05-06 10:00 46.87509 -122.63317 15475 ft 353 kts 36°
2026-05-06 10:00 46.90089 -122.60394 14989 ft 345 kts 36°
2026-05-06 10:00 46.91332 -122.58983 14896 ft 338 kts 36°
2026-05-06 10:01 46.93167 -122.56912 14734 ft 327 kts 33°
2026-05-06 10:01 46.95165 -122.55429 14238 ft 325 kts 15°
2026-05-06 10:01 46.97339 -122.54531 13804 ft 324 kts 14°
2026-05-06 10:01 46.99506 -122.53653 13382 ft 322 kts 14°
2026-05-06 10:02 47.01650 -122.52756 12997 ft 319 kts 14°
2026-05-06 10:02 47.03769 -122.51843 12649 ft 315 kts 14°
2026-05-06 10:02 47.05119 -122.51256 12423 ft 313 kts 15°
2026-05-06 10:02 47.07196 -122.50348 12098 ft 309 kts 14°
2026-05-06 10:03 47.09272 -122.49640 11813 ft 303 kts
2026-05-06 10:03 47.11329 -122.49284 11485 ft 300 kts
2026-05-06 10:03 47.13396 -122.48977 11142 ft 297 kts
2026-05-06 10:03 47.15449 -122.48641 10791 ft 296 kts
2026-05-06 10:04 47.17487 -122.48283 10442 ft 294 kts
2026-05-06 10:04 47.19510 -122.47924 10188 ft 290 kts
2026-05-06 10:04 47.21479 -122.47614 10059 ft 279 kts
2026-05-06 10:04 47.23412 -122.47324 9721 ft 277 kts
2026-05-06 10:05 47.25311 -122.47041 9371 ft 271 kts
2026-05-06 10:05 47.27165 -122.46761 9051 ft 265 kts
2026-05-06 10:05 47.28996 -122.46484 8742 ft 264 kts
2026-05-06 10:05 47.30820 -122.46206 8428 ft 263 kts
2026-05-06 10:06 47.32612 -122.45932 8182 ft 259 kts
2026-05-06 10:06 47.34388 -122.45660 8067 ft 254 kts
2026-05-06 10:06 47.36148 -122.45467 7867 ft 254 kts 359°
2026-05-06 10:06 47.37925 -122.45465 7671 ft 256 kts 358°
2026-05-06 10:07 47.39713 -122.45490 7447 ft 258 kts 358°
2026-05-06 10:07 47.41517 -122.45512 7223 ft 259 kts 358°
2026-05-06 10:07 47.43312 -122.45526 7002 ft 257 kts 358°
2026-05-06 10:07 47.45091 -122.45531 6769 ft 253 kts 358°
2026-05-06 10:08 47.46842 -122.45533 6539 ft 250 kts 358°
2026-05-06 10:08 47.48552 -122.45535 6331 ft 248 kts 358°
2026-05-06 10:08 47.50271 -122.45536 6117 ft 247 kts 358°
2026-05-06 10:08 47.52014 -122.45560 6051 ft 252 kts 357°
2026-05-06 10:09 47.53772 -122.45633 6012 ft 252 kts 357°
2026-05-06 10:09 47.55512 -122.45718 6003 ft 248 kts 356°
2026-05-06 10:09 47.57232 -122.45805 5993 ft 246 kts 357°
2026-05-06 10:09 47.58946 -122.45893 5995 ft 247 kts 356°
2026-05-06 10:10 47.60654 -122.45985 5999 ft 248 kts 356°
2026-05-06 10:10 47.62390 -122.46082 6005 ft 249 kts 356°
2026-05-06 10:10 47.64141 -122.46170 5998 ft 250 kts 357°
2026-05-06 10:10 47.65871 -122.46250 5990 ft 251 kts 357°
2026-05-06 10:11 47.67615 -122.46327 5985 ft 251 kts 358°
2026-05-06 10:11 47.69292 -122.45724 5978 ft 253 kts 32°
2026-05-06 10:11 47.70452 -122.43863 5998 ft 251 kts 61°
2026-05-06 10:11 47.70946 -122.41387 5986 ft 254 kts 84°
2026-05-06 10:12 47.70854 -122.38702 5999 ft 260 kts 96°
2026-05-06 10:12 47.70593 -122.36092 5960 ft 257 kts 100°
2026-05-06 10:12 47.69859 -122.33737 5645 ft 253 kts 132°
2026-05-06 10:12 47.68363 -122.32407 5112 ft 253 kts 166°
2026-05-06 10:13 47.66667 -122.31965 4930 ft 239 kts 173°
2026-05-06 10:13 47.65051 -122.31700 4636 ft 231 kts 177°
2026-05-06 10:13 47.63459 -122.31630 4278 ft 226 kts 180°
2026-05-06 10:13 47.61908 -122.31642 3939 ft 220 kts 181°
2026-05-06 10:14 47.60420 -122.31661 3734 ft 209 kts 181°
2026-05-06 10:14 47.59000 -122.31675 3540 ft 194 kts 180°
2026-05-06 10:14 47.57705 -122.31687 3294 ft 180 kts 180°
2026-05-06 10:14 47.56457 -122.31697 2849 ft 178 kts 181°
2026-05-06 10:15 47.55233 -122.31708 2421 ft 174 kts 180°
2026-05-06 10:15 47.54045 -122.31718 2076 ft 166 kts 181°
2026-05-06 10:15 47.52958 -122.31728 1820 ft 150 kts 181°
2026-05-06 10:15 47.51971 -122.31736 1609 ft 136 kts 181°
2026-05-06 10:16 47.51045 -122.31745 1432 ft 132 kts 181°
2026-05-06 10:16 47.50124 -122.31754 1247 ft 134 kts 182°
2026-05-06 10:16 47.49172 -122.31762 1060 ft 141 kts 181°
2026-05-06 10:16 47.48188 -122.31769 836 ft 144 kts 182°
2026-05-06 10:17 47.47187 -122.31778 631 ft 142 kts 182°
2026-05-06 10:17 47.46225 -122.31787 420 ft 132 kts 181°
2026-05-06 10:17 47.45384 -122.31798 399 ft 102 kts 179°
2026-05-06 10:17 47.44865 -122.31801 389 ft 53 kts 180°
2026-05-06 10:18 47.44514 -122.31681 376 ft 51 kts 152°
2026-05-06 10:18 47.44251 -122.31400 378 ft 41 kts 118°
2026-05-06 10:18 47.44116 -122.31064 381 ft 37 kts 146°
2026-05-06 10:18 47.43912 -122.30856 379 ft 34 kts 116°
2026-05-06 10:19 47.43826 -122.30636 378 ft 22 kts 179°
2026-05-06 10:19 47.43723 -122.30539 378 ft 19 kts 95°
2026-05-06 10:19 47.43722 -122.30349 380 ft 18 kts 88°